www.pogodaiklimat.ru

Погода и климат >> Архив погоды >> Пакистан >> Дера-Исмаил-Хан


ПОГОДА в Дера-Исмаил-Хане

  • Прогноз погоды в Дера-Исмаил-Хане
  • Монитор погоды в Дера-Исмаил-Хане

АРХИВ ПОГОДЫ в Дера-Исмаил-Хане

Время (UTC), дата Ветер
(напр.,м/с)
 
Видим.   Явления Облачность Т
(С)
Тd
(С)
f
(%)
Тe
(С)
Тes
(С)
Комфортность P
(гПа)
Po
(гПа)
Тmin
(С)
Tmax
(С)
R
(мм)
R24
(мм)
S
(см)
09 19.03 штиль 0 10 км 9/3 1110 м
[Sc As op]
+20.5 +13.6 65 +23 +27 комфорт 1009.8 989.7
12 19.03 СВ 3 4000 м 6/3 1110 м
[Sc As op]
+21.5 +15.7 70 +25 +26 комфорт 1008.2 988.4 +22.0
15 19.03 СВ 1 4000 м 10/4 1110 м
[Sc As op]
+19.5 +15.3 77 +22 +22 комфорт 1008.4 1000.0
18 19.03 СВ 3 4000 м 4/0
[As op]
+18.5 +15.1 81 +19 +19 1010.1 990.1
21 19.03 штиль 0 4000 м 5/0
[As op]
+17.5 +14.0 80 +17 +17 1009.7 1000.0
00 20.03 штиль 0 4000 м ясно +14.5 +11.7 83 +14 +14 1009.0 988.7
03 20.03 штиль 0 10 км ясно +14.0 +11.2 83 +14 +18 1010.2 989.9 +14.1
06 20.03 СВ 1 10 км ясно +21.0 +11.1 53 +24 +41 комфорт 1012.3 992.4
09 20.03 ЮВ 1 10 км ясно +23.5 +13.2 52 +26 +41 жарко 1011.1 1000.0
12 20.03 СВ 1 10 км ясно +24.0 +13.9 53 +26 +28 жарко 1010.4 990.7 +25.0
15 20.03 штиль 0 4000 м ясно +20.0 +14.9 72 +22 +22 комфорт 1012.4 992.2
18 20.03 штиль 0 4000 м ясно +17.0 +13.5 80 +17 +17 1014.1 994.0
21 20.03 штиль 0 4000 м ясно +15.0 +12.3 84 +15 +15 1013.1 992.5
00 21.03 штиль 0 4000 м ясно +15.0 +12.3 84 +15 +15 1013.7 993.4
03 21.03 штиль 0 10 км ясно +16.0 +12.4 79 +16 +20 1015.8 995.6 +12.1
06 21.03 СЗ 1 10 км ясно +24.0 +11.7 46 +26 +43 жарко 1016.3 996.6
09 21.03 ЮЗ 1 10 км ясно +27.0 +13.6 44 +29 +45 жарко 1014.5 994.7
12 21.03 ЮВ 1 10 км ясно +25.0 +14.1 51 +27 +30 жарко 1013.3 993.6 +27.1
15 21.03 штиль 0 10 км ясно +20.5 +18.6 89 +24 +24 комфорт 1014.5 1000.0
18 21.03 штиль 0 4000 м ясно +18.0 +12.7 71 +18 +18 1016.4 996.3
21 21.03 штиль 0 4000 м дым ясно +16.0 +11.4 74 +16 +16 1015.5 1000.0
00 22.03 ЮЗ 1 4000 м дым 10/5 1110 м
[Sc As op]
+15.0 +12.3 84 +15 +15 1015.5 995.1
03 22.03 штиль 0 4000 м дым 5/0
[As op]
+16.0 +12.4 79 +16 +19 1017.1 996.8 +13.1
06 22.03 штиль 0 10 км ясно +26.0 +14.4 49 +28 +49 жарко 1017.8 998.1
09 22.03 ЮВ 1 10 км 4/0
[Ac trans]
+28.0 +12.8 39 +29 +42 жарко 1015.4 1000.0
12 22.03 штиль 0 10 км 10/5 1110 м
[Sc As op]
+27.5 +15.3 47 +30 +31 жарко 1013.2 993.7 +30.0
15 22.03 З 1 4000 м 10/5 1110 м
[Sc As op]
+24.0 +13.9 53 +26 +26 жарко 1014.0 994.0
18 22.03 СЗ 1 4000 м 10/5 1110 м
[Sc As op]
+20.0 +14.0 68 +23 +23 комфорт 1015.8 995.8
21 22.03 штиль 0 4000 м 10/5 1110 м
[Sc As op]
+17.0 +11.5 70 +17 +17 1015.4 1000.0
00 23.03 С 1 4000 м 10/5 1110 м
[Sc As op]
+17.0 +11.5 70 +18 +18 1014.5 994.3
03 23.03 СВ 1 4000 м 10/5 1110 м
[Sc As op]
+18.0 +14.6 81 +19 +20 1015.8 995.7 +14.0 1
06 23.03 штиль 0 4000 м 10/5 1110 м
[Sc As op]
+21.0 +15.1 69 +24 +26 комфорт 1016.9 996.9
09 23.03 СЗ 1 4000 м 10/5 1110 м
[Sc As op]
+19.0 +14.7 76 +22 +23 комфорт 1016.3 1000.0
12 23.03 штиль 0 4000 м 6/3 1110 м
[Sc As op]
+22.0 +15.4 66 +26 +27 душно 1014.3 994.4 +23.0
15 23.03 штиль 0 4000 м дым ясно +19.5 +15.3 77 +21 +21 комфорт 1015.1 1000.0
18 23.03 штиль 0 4000 м дым ясно +17.5 +14.9 85 +17 +17 1015.6 995.6
21 23.03 штиль 0 4000 м дым ясно +15.5 +12.8 84 +15 +15 1014.8 1000.0
00 24.03 штиль 0 4000 м дым ясно +15.5 +12.8 84 +15 +15 1014.8 1000.0
03 24.03 штиль 0 4000 м дым 8/3 1110 м
[Sc As op]
+17.0 +14.4 85 +17 +18 1015.3 995.1 +15.1
06 24.03 СЗ 1 4000 м дым 6/3 1110 м
[Sc As op]
+21.5 +14.8 66 +25 +33 комфорт 1016.1 996.2
09 24.03 СЗ 1 10 км ясно +26.0 +11.1 39 +27 +43 жарко 1014.1 994.3
12 24.03 СЗ 1 10 км ясно +26.0 +14.4 49 +28 +31 жарко 1011.3 991.8 +28.0
15 24.03 штиль 0 4000 м дым ясно +22.5 +15.9 66 +27 +27 душно 1011.8 1000.0
18 24.03 СЗ 1 4000 м дым 6/3 1110 м
[Sc As op]
+20.5 +14.6 69 +24 +24 комфорт 1012.8 992.8
21 24.03 СЗ 1 2000 м дымка 6/3 1110 м
[Sc As op]
+18.0 +15.5 85 +19 +19 1012.9 992.5
00 25.03 СЗ 1 2000 м дымка 9/4 1110 м
[Sc As op]
+17.0 +14.4 85 +18 +18 1011.8 991.7
03 25.03 СЗ 1 4000 м дымка 4/0
[As op]
+17.0 +14.4 85 +19 +22 1013.2 993.0 +15.5
06 25.03 СЗ 1 10 км ясно +24.0 +18.2 70 +28 +46 душно 1014.5 994.7
09 25.03 СЗ 1 10 км ясно +29.0 +11.9 35 +30 +46 жарко 1013.3 1000.0
12 25.03 СЗ 1 10 км ясно +30.0 +13.4 36 +31 +34 жарко 1009.8 990.6 +31.0
15 25.03 СЗ 1 4000 м дым ясно +23.5 +13.2 52 +26 +26 жарко 1011.3 1000.0
18 25.03 СЗ 1 4000 м дым ясно +21.0 +12.2 57 +24 +24 комфорт 1013.4 993.4
21 25.03 СЗ 1 4000 м дым ясно +19.5 +12.4 64 +22 +22 комфорт 1013.6 1000.0
00 26.03 СЗ 1 4000 м дым ясно +17.0 +11.5 70 +18 +18 1012.6 992.4
03 26.03 СЗ 1 4000 м дым ясно +17.0 +12.5 75 +19 +23 1014.3 994.1 +14.5
06 26.03 СЗ 1 10 км ясно +27.5 +13.2 41 +29 +49 жарко 1014.1 994.6

 

Местоположение метеостанции Дера-Исмаил-Хан (Пакистан): широта 31.82 долгота 70.92 высота над уровнем моря 173 м.

В архиве по умолчанию представлена погода в Дера-Исмаил-Хане за последнюю неделю. Архивные данные за месяц целиком и за предыдущие месяцы, начиная с января 2011 года, Вы можете получить, выбрав интересующий диапазон дат из раскрывающегося списка и нажав кнопку "Ввод!".


*Определитесь, кто Вы:
робот инопланетянин человек

Внимание! Время в таблицах - всемирное. Для получения местного времени необходимо прибавить поправку, которая равна 5 ч.

Смотрите также архив погоды в соседних городах и на ближайших метеорологических станциях:

Погода в Бхаккаре (Пакистан) (26 км)
Погода в Леяхе (Пакистан) (89 км)
Погода в Нур Пур Тал (Пакистан) (93 км)
Погода в Мианвали (Пакистан) (99 км)
Погода в Джанге (Пакистан) (146 км)
Погода в Зхобе (Пакистан) (147 км)
Погода в Банну (Пакистан) (152 км)
Погода в Кот Адду (Пакистан) (152 км)
Погода в Джаухарабаде (Пакистан) (161 км)
Погода в Саргодхе (Пакистан) (167 км)

Пояснения к столбцам:

Ветер - указаны скорость ветра в м/с - средняя за 10 мин, порывы в срок и между сроками (в фигурных скобках) и направление, откуда дует ветер: С - северный, СВ - северо-восточный, В - восточный, ЮВ - юго-восточный, Ю - южный, ЮЗ - юго-западный, З - западный, СЗ - северо-западный.
Видимость - горизонтальная дальность видимости в метрах или километрах. При видимости от 1 до 10 км при отсутствии осадков обычно наблюдается дымка, при ухудшении видимости до 1 км и менее - туман. В сухую погоду видимость может ухудшаться дымом, пылью или мглою.
Явления - указаны атмосферные явления, наблюдавшиеся в срок или в последний час перед сроком; фигурными скобками обозначены явления, наблюдавшиеся между сроками (за 1-3 часа до срока); квадратными скобками обозначены град или гололедные отложения с указанием их диаметра в мм.
Облачность - указаны через наклонную черту общая и нижняя облачность в баллах и высота нижней границы облаков в метрах; квадратными скобками обозначены формы облаков: Ci - перистые, Cs - перисто-слоистые, Cc - перисто-кучевые, Ac - высококучевые, As - высокослоистые, Sc - слоисто-кучевые, Ns - слоисто-дождевые, Cu - кучевые, Cb - кучево-дождевые. Подробнее классификацию облаков см. в Атласе облаков (PDF).
T - Температура воздуха - температура, измеренная на высоте 2 м над землей.
Td - Температура точки росы - температура, при понижении до которой содержащийся в воздухе водяной пар достигнет насыщения.
f - Относительная влажность воздуха - влажноcть воздуха, измеренная на высоте 2 м над землей.
Te - Эффективная температура - температура, которую ощущает одетый по сезону человек в тени. Характеристика душности погоды. При расчете учитывается влияние влажности воздуха и скорости ветра на теплоощущения человека.
Tes - Эффективная температура на солнце - температура, которую ощущает человек, с поправкой на солнечный нагрев. Характеристика знойности погоды. Зависит от высоты солнца над горизонтом, облачности и скорости ветра. Ночью, в пасмурную погоду, а также при ветре 12 м/с и более поправка равна нулю.
P - Атмосферное давление - приведенное к уровню моря атмосферное давление.
Po - Атмосферное давление - измеренное на уровне метеостанции атмосферное давление.
Tmin - Минимальная температура - минимум температуры воздуха на высоте 2 м над землей.
Tmax - Максимальная температура - максимум температуры воздуха на высоте 2 м над землей.
R - Количество осадков - Количество выпавших осадков за период времени, мм. При наведении курсора мыши на число - период времени, за который выпало указанное количество осадков.
R24 - Количество осадков - Количество выпавших осадков за 24 часа, мм.
S - Снежный покров - Высота снежного покрова, см. При наведении курсора мыши на число - состояние снежного покрова и степень покрытия местности в баллах.